Date,TemperatureHighF,TemperatureAvgF,TemperatureLowF,DewpointHighF,DewpointAvgF,DewpointLowF,HumidityHigh,HumidityAvg,HumidityLow,PressureMaxIn,PressureMinIn,WindSpeedMaxMPH,WindSpeedAvgMPH,GustSpeedMaxMPH,PrecipitationSumIn
2013-5-1,77.9,63.9,56.7,56.1,52.2,49.5,80,67,44,30.12,29.93,13,4,13,0.00
2013-5-2,92.0,72.8,56.2,57.2,44.6,18.8,84,46,12,30.13,30.03,14,3,14,0.00
2013-5-3,92.5,75.1,63.7,51.8,31.9,16.3,61,23,5,30.06,29.86,14,4,14,0.00
2013-5-4,72.5,62.9,55.4,53.6,50.4,42.6,79,64,49,29.90,29.81,17,5,17,0.00
2013-5-5,64.4,58.8,55.6,52.5,50.3,48.4,83,74,64,29.99,29.88,19,5,19,0.07
2013-5-6,64.8,58.1,55.1,58.4,53.0,50.1,92,83,66,30.05,29.96,16,5,16,0.21
2013-5-7,63.4,58.2,54.9,54.0,50.9,46.2,90,77,56,30.11,30.02,13,5,13,0.17
2013-5-8,67.3,59.1,54.0,55.4,50.2,46.6,85,73,53,30.14,30.09,15,3,15,0.00
2013-5-9,68.6,60.0,54.7,54.5,51.8,49.6,85,75,59,30.13,30.07,14,3,14,0.00
2013-5-10,79.6,64.9,55.6,59.1,54.5,50.7,85,70,49,30.12,30.05,12,3,12,0.00
2013-5-11,88.7,69.9,56.7,62.6,56.4,52.6,90,66,32,30.12,30.02,12,3,12,0.00
2013-5-12,97.2,80.4,65.2,58.9,49.2,39.8,72,38,16,30.09,29.97,13,4,13,0.00
2013-5-13,98.5,84.2,74.0,51.4,43.8,37.7,32,25,15,30.02,29.94,18,5,18,0.00
2013-5-14,84.2,72.1,59.0,58.0,51.5,42.7,78,50,29,30.05,29.96,12,4,13,0.00
2013-5-15,76.9,64.6,58.3,55.9,52.5,49.9,77,66,46,30.07,30.00,12,4,12,0.00
2013-5-16,72.7,62.9,58.0,54.6,51.8,49.6,77,68,51,30.01,29.94,12,4,12,0.00
2013-5-17,74.5,63.8,58.0,56.3,52.4,50.0,75,67,53,30.05,29.94,13,4,13,0.00
2013-5-18,74.3,64.1,56.2,55.7,52.6,50.4,82,67,48,30.07,30.02,16,4,16,0.00
2013-5-19,76.5,66.2,58.1,56.5,54.2,52.2,81,66,49,30.03,29.93,14,4,14,0.00
2013-5-20,79.4,66.3,58.1,60.8,55.4,52.2,84,69,49,29.99,29.93,14,3,14,0.00
2013-5-21,82.3,67.9,58.7,60.9,56.3,53.3,84,68,46,29.98,29.88,13,3,13,0.00
2013-5-22,72.7,63.9,59.2,56.9,53.2,49.2,80,69,52,29.90,29.84,13,5,13,0.00
2013-5-23,72.7,61.7,55.4,52.4,50.0,47.6,76,66,47,29.98,29.87,14,5,14,0.00
2013-5-24,75.2,63.3,56.5,53.6,49.3,46.8,74,61,45,30.03,29.95,13,4,13,0.00
2013-5-25,74.0,61.8,55.3,53.4,49.8,47.8,80,66,44,30.05,29.99,14,4,14,0.00
2013-5-26,74.2,62.8,55.1,53.3,50.3,48.3,82,65,46,30.09,30.02,14,4,14,0.00
2013-5-27,76.0,63.4,54.9,56.6,51.9,48.3,81,68,47,30.04,29.93,14,4,14,0.00
2013-5-28,76.5,64.4,57.4,58.2,54.1,51.5,81,70,51,29.93,29.82,17,4,17,0.00
2013-5-29,80.5,66.6,58.0,59.3,55.4,52.2,84,69,45,29.85,29.80,14,4,14,0.00
2013-5-30,77.8,66.0,58.7,59.4,55.3,51.8,82,70,49,29.94,29.80,12,4,12,0.00
2013-5-31,81.7,67.1,58.7,59.7,55.6,53.1,83,68,45,29.93,29.86,13,3,13,0.00